Time,TemperatureF,DewpointF,PressureIn,WindDirection,WindDirectionDegrees,WindSpeedMPH,WindSpeedGustMPH,Humidity,HourlyPrecipIn,Conditions,Clouds,dailyrainin,SoftwareType,DateUTC
2013-08-24 00:01:00,75.7,69.1,29.87,ESE,116,4.0,9.0,80,0.00,,,0.00,WeatherCatV1.21B27,2013-08-24 05:01:00,
2013-08-24 00:06:00,75.6,69.3,29.87,SE,130,3.0,4.0,81,0.00,,,0.00,WeatherCatV1.21B27,2013-08-24 05:06:00,
2013-08-24 00:11:00,75.5,69.2,29.87,SE,126,1.0,4.0,81,0.00,,,0.00,WeatherCatV1.21B27,2013-08-24 05:11:00,
2013-08-24 00:16:00,75.4,69.2,29.87,ESE,119,0.0,8.0,81,0.00,,,0.00,WeatherCatV1.21B27,2013-08-24 05:16:00,
2013-08-24 00:21:00,75.3,69.1,29.87,SE,125,3.0,3.0,81,0.00,,,0.00,WeatherCatV1.21B27,2013-08-24 05:21:00,
2013-08-24 00:26:00,75.3,69.1,29.87,SW,220,5.0,5.0,81,0.00,,,0.00,WeatherCatV1.21B27,2013-08-24 05:26:00,
2013-08-24 00:31:00,75.3,69.1,29.87,ESE,108,1.0,5.0,81,0.00,,,0.00,WeatherCatV1.21B27,2013-08-24 05:31:00,
2013-08-24 00:36:00,75.3,69.1,29.87,ESE,117,2.0,7.0,81,0.00,,,0.00,WeatherCatV1.21B27,2013-08-24 05:36:00,
2013-08-24 00:41:00,75.3,69.1,29.87,SE,128,4.0,7.0,81,0.00,,,0.00,WeatherCatV1.21B27,2013-08-24 05:41:00,
2013-08-24 00:46:00,75.4,69.2,29.87,SE,125,3.0,8.0,81,0.00,,,0.00,WeatherCatV1.21B27,2013-08-24 05:46:00,
2013-08-24 00:51:00,75.5,69.2,29.87,ESE,109,1.0,9.0,81,0.00,,,0.00,WeatherCatV1.21B27,2013-08-24 05:51:00,
2013-08-24 00:56:00,75.5,68.9,29.87,SE,126,4.0,5.0,80,0.00,,,0.00,WeatherCatV1.21B27,2013-08-24 05:56:00,
2013-08-24 01:01:00,75.5,68.9,29.86,SE,135,1.0,8.0,80,0.00,,,0.00,WeatherCatV1.21B27,2013-08-24 06:01:00,
2013-08-24 01:06:00,75.5,68.9,29.86,ESE,115,2.0,5.0,80,0.00,,,0.00,WeatherCatV1.21B27,2013-08-24 06:06:00,
2013-08-24 01:11:00,75.6,69.0,29.86,East,101,6.0,11.0,80,0.00,,,0.00,WeatherCatV1.21B27,2013-08-24 06:11:00,
2013-08-24 01:16:00,75.6,69.0,29.87,SE,126,5.0,10.0,80,0.00,,,0.00,WeatherCatV1.21B27,2013-08-24 06:16:00,
2013-08-24 01:21:00,75.7,69.1,29.86,SSE,162,2.0,8.0,80,0.00,,,0.00,WeatherCatV1.21B27,2013-08-24 06:21:00,
2013-08-24 01:26:00,75.7,69.1,29.86,SE,127,1.0,8.0,80,0.00,,,0.00,WeatherCatV1.21B27,2013-08-24 06:26:00,
2013-08-24 01:31:00,75.7,69.1,29.86,South,172,5.0,5.0,80,0.00,,,0.00,WeatherCatV1.21B27,2013-08-24 06:31:00,
2013-08-24 01:36:00,75.7,69.1,29.87,South,179,4.0,5.0,80,0.00,,,0.00,WeatherCatV1.21B27,2013-08-24 06:36:00,
2013-08-24 01:41:00,75.7,68.7,29.86,SE,139,2.0,6.0,79,0.00,,,0.00,WeatherCatV1.21B27,2013-08-24 06:41:00,
2013-08-24 01:46:00,75.7,69.1,29.86,ESE,105,1.0,4.0,80,0.00,,,0.00,WeatherCatV1.21B27,2013-08-24 06:46:00,
2013-08-24 01:51:00,75.6,69.0,29.86,ESE,116,2.0,5.0,80,0.00,,,0.00,WeatherCatV1.21B27,2013-08-24 06:51:00,
2013-08-24 01:56:00,75.5,68.9,29.86,SE,125,1.0,8.0,80,0.00,,,0.00,WeatherCatV1.21B27,2013-08-24 06:56:00,
2013-08-24 02:01:00,75.5,68.9,29.86,ESE,106,3.0,5.0,80,0.00,,,0.00,WeatherCatV1.21B27,2013-08-24 07:01:00,
2013-08-24 02:06:00,75.4,68.8,29.86,SE,131,2.0,3.0,80,0.00,,,0.00,WeatherCatV1.21B27,2013-08-24 07:06:00,
2013-08-24 02:11:00,75.3,68.7,29.86,SE,131,1.0,4.0,80,0.00,,,0.00,WeatherCatV1.21B27,2013-08-24 07:11:00,
2013-08-24 02:16:00,75.1,68.5,29.86,SE,135,4.0,7.0,80,0.00,,,0.00,WeatherCatV1.21B27,2013-08-24 07:16:00,
2013-08-24 02:21:00,75.0,68.8,29.86,SSE,148,5.0,5.0,81,0.00,,,0.00,WeatherCatV1.21B27,2013-08-24 07:21:00,
2013-08-24 02:26:00,74.9,68.7,29.86,SE,129,2.0,7.0,81,0.00,,,0.00,WeatherCatV1.21B27,2013-08-24 07:26:00,
2013-08-24 02:31:00,74.9,68.7,29.86,ESE,122,2.0,8.0,81,0.00,,,0.00,WeatherCatV1.21B27,2013-08-24 07:31:00,
2013-08-24 02:36:00,74.9,68.7,29.86,ESE,119,0.0,7.0,81,0.00,,,0.00,WeatherCatV1.21B27,2013-08-24 07:36:00,
2013-08-24 02:41:00,74.8,68.6,29.86,ESE,115,4.0,5.0,81,0.00,,,0.00,WeatherCatV1.21B27,2013-08-24 07:41:00,
2013-08-24 02:46:00,74.9,68.7,29.86,SE,143,0.0,3.0,81,0.00,,,0.00,WeatherCatV1.21B27,2013-08-24 07:46:00,
2013-08-24 02:51:00,74.9,68.7,29.86,ESE,108,3.0,8.0,81,0.00,,,0.00,WeatherCatV1.21B27,2013-08-24 07:51:00,
2013-08-24 02:56:00,74.9,68.7,29.86,ESE,120,2.0,7.0,81,0.00,,,0.00,WeatherCatV1.21B27,2013-08-24 07:56:00,
2013-08-24 03:01:00,74.9,68.7,29.86,SE,125,1.0,12.0,81,0.00,,,0.00,WeatherCatV1.21B27,2013-08-24 08:01:00,
2013-08-24 03:06:00,74.7,68.8,29.86,ESE,118,1.0,5.0,82,0.00,,,0.00,WeatherCatV1.21B27,2013-08-24 08:06:00,
2013-08-24 03:11:00,74.5,69.0,29.85,SE,137,6.0,9.0,83,0.00,,,0.00,WeatherCatV1.21B27,2013-08-24 08:11:00,
2013-08-24 03:16:00,74.3,69.1,29.86,SE,128,0.0,4.0,84,0.00,,,0.00,WeatherCatV1.21B27,2013-08-24 08:16:00,
2013-08-24 03:21:00,74.2,69.4,29.86,SW,222,3.0,4.0,85,0.00,,,0.00,WeatherCatV1.21B27,2013-08-24 08:21:00,
2013-08-24 03:26:00,73.8,69.3,29.86,SE,137,1.0,1.0,86,0.00,,,0.00,WeatherCatV1.21B27,2013-08-24 08:26:00,
2013-08-24 03:31:00,73.4,69.6,29.86,SE,141,1.0,6.0,88,0.00,,,0.01,WeatherCatV1.21B27,2013-08-24 08:31:00,
2013-08-24 03:36:00,72.8,69.4,29.85,ESE,114,1.0,9.0,89,0.18,,,0.02,WeatherCatV1.21B27,2013-08-24 08:36:00,
2013-08-24 03:41:00,72.4,69.6,29.85,SE,141,3.0,4.0,91,0.08,,,0.02,WeatherCatV1.21B27,2013-08-24 08:41:00,
2013-08-24 03:46:00,72.1,69.6,29.85,ESE,110,2.0,7.0,92,0.05,,,0.02,WeatherCatV1.21B27,2013-08-24 08:46:00,
2013-08-24 03:51:00,72.0,69.5,29.86,East,91,0.0,6.0,92,0.00,,,0.02,WeatherCatV1.21B27,2013-08-24 08:51:00,
2013-08-24 03:56:00,71.9,69.8,29.86,SE,127,1.0,2.0,93,0.00,,,0.02,WeatherCatV1.21B27,2013-08-24 08:56:00,
2013-08-24 04:01:00,71.8,69.3,29.86,SE,138,6.0,6.0,92,0.00,,,0.02,WeatherCatV1.21B27,2013-08-24 09:01:00,
2013-08-24 04:06:00,71.7,69.6,29.86,ESE,120,2.0,5.0,93,0.00,,,0.02,WeatherCatV1.21B27,2013-08-24 09:06:00,
2013-08-24 04:11:00,71.6,69.5,29.86,ESE,117,0.0,4.0,93,0.00,,,0.02,WeatherCatV1.21B27,2013-08-24 09:11:00,
2013-08-24 04:16:00,71.6,69.5,29.86,ESE,112,4.0,4.0,93,0.00,,,0.02,WeatherCatV1.21B27,2013-08-24 09:16:00,
2013-08-24 04:21:00,71.6,69.5,29.86,ESE,122,4.0,4.0,93,0.00,,,0.02,WeatherCatV1.21B27,2013-08-24 09:21:00,
2013-08-24 04:26:00,71.6,69.5,29.86,ESE,114,4.0,5.0,93,0.00,,,0.02,WeatherCatV1.21B27,2013-08-24 09:26:00,
2013-08-24 04:31:00,71.7,69.6,29.86,ESE,119,2.0,9.0,93,0.00,,,0.02,WeatherCatV1.21B27,2013-08-24 09:31:00,
2013-08-24 04:36:00,71.8,69.7,29.86,SE,138,1.0,5.0,93,0.00,,,0.02,WeatherCatV1.21B27,2013-08-24 09:36:00,
2013-08-24 04:41:00,71.8,69.3,29.86,ESE,110,4.0,8.0,92,0.00,,,0.02,WeatherCatV1.21B27,2013-08-24 09:41:00,
2013-08-24 04:46:00,71.9,69.1,29.86,SE,124,0.0,7.0,91,0.00,,,0.02,WeatherCatV1.21B27,2013-08-24 09:46:00,
2013-08-24 04:51:00,71.9,69.1,29.87,SE,135,3.0,7.0,91,0.00,,,0.02,WeatherCatV1.21B27,2013-08-24 09:51:00,
2013-08-24 04:56:00,72.0,69.2,29.87,SE,127,8.0,8.0,91,0.00,,,0.02,WeatherCatV1.21B27,2013-08-24 09:56:00,
2013-08-24 05:01:00,72.1,69.3,29.87,SE,139,2.0,3.0,91,0.00,,,0.02,WeatherCatV1.21B27,2013-08-24 10:01:00,
2013-08-24 05:06:00,72.1,69.3,29.86,ESE,113,8.0,8.0,91,0.00,,,0.02,WeatherCatV1.21B27,2013-08-24 10:06:00,
2013-08-24 05:11:00,72.2,69.1,29.87,SE,128,0.0,8.0,90,0.00,,,0.02,WeatherCatV1.21B27,2013-08-24 10:11:00,
2013-08-24 05:16:00,72.3,69.5,29.86,SE,124,4.0,11.0,91,0.00,,,0.02,WeatherCatV1.21B27,2013-08-24 10:16:00,
2013-08-24 05:21:00,72.3,69.5,29.86,SSE,147,1.0,8.0,91,0.00,,,0.02,WeatherCatV1.21B27,2013-08-24 10:21:00,
2013-08-24 05:26:00,72.3,69.8,29.86,ESE,103,3.0,15.0,92,0.00,,,0.03,WeatherCatV1.21B27,2013-08-24 10:26:00,
2013-08-24 05:31:00,72.3,70.2,29.86,SSE,147,5.0,9.0,93,0.00,,,0.03,WeatherCatV1.21B27,2013-08-24 10:31:00,
2013-08-24 05:36:00,72.4,70.2,29.86,ESE,109,4.0,4.0,93,0.04,,,0.04,WeatherCatV1.21B27,2013-08-24 10:36:00,
2013-08-24 05:41:00,72.4,69.9,29.86,SSE,166,7.0,9.0,92,0.04,,,0.04,WeatherCatV1.21B27,2013-08-24 10:41:00,
2013-08-24 05:46:00,72.7,69.9,29.85,SSE,157,4.0,12.0,91,0.04,,,0.04,WeatherCatV1.21B27,2013-08-24 10:46:00,
2013-08-24 05:51:00,73.0,69.6,29.86,ESE,121,5.0,14.0,89,0.04,,,0.04,WeatherCatV1.21B27,2013-08-24 10:51:00,
2013-08-24 05:56:00,73.1,69.3,29.85,ESE,118,10.0,15.0,88,0.00,,,0.04,WeatherCatV1.21B27,2013-08-24 10:56:00,
2013-08-24 06:01:00,73.1,69.0,29.85,ESE,112,1.0,14.0,87,0.00,,,0.04,WeatherCatV1.21B27,2013-08-24 11:01:00,
2013-08-24 06:06:00,73.0,69.2,29.86,ESE,109,8.0,11.0,88,0.00,,,0.04,WeatherCatV1.21B27,2013-08-24 11:06:00,
2013-08-24 06:11:00,72.9,69.1,29.85,ESE,105,3.0,7.0,88,0.00,,,0.04,WeatherCatV1.21B27,2013-08-24 11:11:00,
2013-08-24 06:16:00,72.7,69.3,29.86,SE,133,10.0,13.0,89,0.00,,,0.04,WeatherCatV1.21B27,2013-08-24 11:16:00,
2013-08-24 06:21:00,72.6,68.8,29.85,ESE,122,13.0,13.0,88,0.00,,,0.04,WeatherCatV1.21B27,2013-08-24 11:21:00,
2013-08-24 06:26:00,72.6,68.5,29.85,ESE,104,5.0,6.0,87,0.00,,,0.04,WeatherCatV1.21B27,2013-08-24 11:26:00,
2013-08-24 06:31:00,72.6,68.2,29.85,ESE,114,7.0,14.0,86,0.00,,,0.04,WeatherCatV1.21B27,2013-08-24 11:31:00,
2013-08-24 06:36:00,72.6,68.2,29.86,SE,132,8.0,11.0,86,0.00,,,0.04,WeatherCatV1.21B27,2013-08-24 11:36:00,
2013-08-24 06:41:00,72.5,68.1,29.85,SE,125,11.0,11.0,86,0.00,,,0.04,WeatherCatV1.21B27,2013-08-24 11:41:00,
2013-08-24 06:46:00,72.3,67.9,29.85,SE,126,5.0,12.0,86,0.00,,,0.04,WeatherCatV1.21B27,2013-08-24 11:46:00,
2013-08-24 06:51:00,72.3,67.9,29.85,SE,128,2.0,10.0,86,0.00,,,0.04,WeatherCatV1.21B27,2013-08-24 11:51:00,
2013-08-24 06:57:00,72.3,67.9,29.86,ESE,118,7.0,9.0,86,0.00,,,0.04,WeatherCatV1.21B27,2013-08-24 11:57:00,
2013-08-24 07:02:00,72.2,67.4,29.86,ESE,113,13.0,13.0,85,0.00,,,0.04,WeatherCatV1.21B27,2013-08-24 12:02:00,
2013-08-24 07:07:00,72.3,67.5,29.86,ESE,103,8.0,10.0,85,0.00,,,0.04,WeatherCatV1.21B27,2013-08-24 12:07:00,
2013-08-24 07:12:00,72.4,68.0,29.86,SSE,164,6.0,9.0,86,0.00,,,0.04,WeatherCatV1.21B27,2013-08-24 12:12:00,
2013-08-24 07:17:00,72.7,68.3,29.86,South,170,5.0,12.0,86,0.00,,,0.04,WeatherCatV1.21B27,2013-08-24 12:17:00,
2013-08-24 07:22:00,72.9,68.8,29.86,ESE,108,7.0,11.0,87,0.00,,,0.05,WeatherCatV1.21B27,2013-08-24 12:22:00,
2013-08-24 07:27:00,71.9,69.1,29.85,ESE,119,4.0,9.0,91,0.78,,,0.16,WeatherCatV1.21B27,2013-08-24 12:27:00,
2013-08-24 07:32:00,71.3,69.2,29.85,SE,129,8.0,12.0,93,0.32,,,0.20,WeatherCatV1.21B27,2013-08-24 12:32:00,
2013-08-24 07:37:00,71.2,69.4,29.85,ENE,75,5.0,14.0,94,0.27,,,0.23,WeatherCatV1.21B27,2013-08-24 12:37:00,
2013-08-24 07:42:00,71.1,69.3,29.86,ESE,109,3.0,13.0,94,0.09,,,0.23,WeatherCatV1.21B27,2013-08-24 12:42:00,
2013-08-24 07:47:00,71.0,69.2,29.85,SSE,148,13.0,13.0,94,0.05,,,0.23,WeatherCatV1.21B27,2013-08-24 12:47:00,
2013-08-24 07:52:00,71.1,69.6,29.86,SE,141,4.0,12.0,95,0.04,,,0.23,WeatherCatV1.21B27,2013-08-24 12:52:00,
2013-08-24 07:57:00,71.2,69.7,29.86,SE,140,2.0,12.0,95,0.66,,,0.24,WeatherCatV1.21B27,2013-08-24 12:57:00,
2013-08-24 08:02:00,71.3,69.8,29.86,SE,127,12.0,13.0,95,0.24,,,0.27,WeatherCatV1.21B27,2013-08-24 13:02:00,
2013-08-24 08:07:00,71.3,69.8,29.87,SE,146,5.0,9.0,95,0.08,,,0.27,WeatherCatV1.21B27,2013-08-24 13:07:00,
2013-08-24 08:12:00,71.3,69.8,29.86,ESE,123,3.0,14.0,95,0.05,,,0.27,WeatherCatV1.21B27,2013-08-24 13:12:00,
2013-08-24 08:17:00,71.3,69.8,29.86,SSE,151,5.0,12.0,95,0.00,,,0.27,WeatherCatV1.21B27,2013-08-24 13:17:00,
2013-08-24 08:22:00,71.3,69.8,29.87,SE,132,5.0,12.0,95,0.00,,,0.27,WeatherCatV1.21B27,2013-08-24 13:22:00,
2013-08-24 08:27:00,71.4,69.6,29.87,SE,146,3.0,10.0,94,0.00,,,0.27,WeatherCatV1.21B27,2013-08-24 13:27:00,
2013-08-24 08:32:00,71.6,69.8,29.87,ESE,117,7.0,10.0,94,0.00,,,0.27,WeatherCatV1.21B27,2013-08-24 13:32:00,
2013-08-24 08:37:00,71.7,69.9,29.86,SE,133,3.0,10.0,94,0.00,,,0.27,WeatherCatV1.21B27,2013-08-24 13:37:00,
2013-08-24 08:42:00,71.8,70.0,29.86,ESE,103,3.0,10.0,94,0.00,,,0.27,WeatherCatV1.21B27,2013-08-24 13:42:00,
2013-08-24 08:47:00,71.9,70.1,29.85,ESE,113,3.0,11.0,94,0.00,,,0.28,WeatherCatV1.21B27,2013-08-24 13:47:00,
2013-08-24 08:52:00,72.0,69.9,29.85,ESE,117,8.0,13.0,93,0.00,,,0.28,WeatherCatV1.21B27,2013-08-24 13:52:00,
2013-08-24 08:57:00,72.1,70.0,29.84,ESE,103,6.0,15.0,93,0.00,,,0.28,WeatherCatV1.21B27,2013-08-24 13:57:00,
2013-08-24 09:02:00,72.3,70.2,29.84,ESE,112,8.0,15.0,93,0.00,,,0.28,WeatherCatV1.21B27,2013-08-24 14:02:00,
2013-08-24 09:07:00,72.4,70.2,29.84,ESE,110,4.0,11.0,93,0.00,,,0.28,WeatherCatV1.21B27,2013-08-24 14:07:00,
2013-08-24 09:12:00,72.7,70.6,29.84,ESE,110,12.0,12.0,93,0.00,,,0.28,WeatherCatV1.21B27,2013-08-24 14:12:00,
2013-08-24 09:17:00,72.9,70.4,29.84,SE,131,5.0,14.0,92,0.00,,,0.28,WeatherCatV1.21B27,2013-08-24 14:17:00,
2013-08-24 09:22:00,73.1,70.6,29.84,ESE,116,8.0,14.0,92,0.00,,,0.28,WeatherCatV1.21B27,2013-08-24 14:22:00,
2013-08-24 09:27:00,73.2,70.7,29.84,ESE,103,3.0,5.0,92,0.00,,,0.28,WeatherCatV1.21B27,2013-08-24 14:27:00,
2013-08-24 09:32:00,73.2,70.4,29.84,ESE,117,5.0,11.0,91,0.00,,,0.28,WeatherCatV1.21B27,2013-08-24 14:32:00,
2013-08-24 09:37:00,73.1,70.3,29.84,ENE,67,2.0,8.0,91,0.00,,,0.28,WeatherCatV1.21B27,2013-08-24 14:37:00,
2013-08-24 09:42:00,73.1,70.3,29.85,ESE,116,3.0,10.0,91,0.00,,,0.28,WeatherCatV1.21B27,2013-08-24 14:42:00,
2013-08-24 09:47:00,73.1,70.3,29.86,South,183,2.0,14.0,91,0.00,,,0.28,WeatherCatV1.21B27,2013-08-24 14:47:00,
2013-08-24 09:52:00,73.1,70.3,29.88,SE,129,0.0,11.0,91,0.00,,,0.28,WeatherCatV1.21B27,2013-08-24 14:52:00,
2013-08-24 09:57:00,73.0,70.5,29.89,SSE,152,0.0,4.0,92,0.00,,,0.28,WeatherCatV1.21B27,2013-08-24 14:57:00,
2013-08-24 10:02:00,73.0,70.5,29.90,SSW,209,0.0,2.0,92,0.00,,,0.28,WeatherCatV1.21B27,2013-08-24 15:02:00,
2013-08-24 10:07:00,73.0,70.5,29.89,SE,140,3.0,5.0,92,0.00,,,0.28,WeatherCatV1.21B27,2013-08-24 15:07:00,
2013-08-24 10:12:00,72.9,70.8,29.88,ESE,118,5.0,10.0,93,0.00,,,0.29,WeatherCatV1.21B27,2013-08-24 15:12:00,
2013-08-24 10:17:00,72.6,70.8,29.87,ESE,109,3.0,4.0,94,0.00,,,0.29,WeatherCatV1.21B27,2013-08-24 15:17:00,
2013-08-24 10:22:00,72.5,70.7,29.87,SE,126,3.0,4.0,94,0.00,,,0.29,WeatherCatV1.21B27,2013-08-24 15:22:00,
2013-08-24 10:27:00,72.6,70.8,29.86,ESE,115,4.0,9.0,94,0.00,,,0.29,WeatherCatV1.21B27,2013-08-24 15:27:00,
2013-08-24 10:32:00,72.8,71.0,29.85,ESE,110,4.0,17.0,94,0.00,,,0.29,WeatherCatV1.21B27,2013-08-24 15:32:00,
2013-08-24 10:37:00,73.1,71.3,29.85,SE,126,3.0,8.0,94,0.00,,,0.29,WeatherCatV1.21B27,2013-08-24 15:37:00,
2013-08-24 10:42:00,73.5,71.3,29.85,East,100,1.0,10.0,93,0.00,,,0.29,WeatherCatV1.21B27,2013-08-24 15:42:00,
2013-08-24 10:47:00,74.6,72.1,29.84,SE,126,4.0,13.0,92,0.00,,,0.29,WeatherCatV1.21B27,2013-08-24 15:47:00,
2013-08-24 10:52:00,75.7,72.2,29.85,ESE,118,5.0,10.0,89,0.00,,,0.29,WeatherCatV1.21B27,2013-08-24 15:52:00,
2013-08-24 10:57:00,76.5,72.7,29.84,ESE,118,12.0,12.0,88,0.00,,,0.29,WeatherCatV1.21B27,2013-08-24 15:57:00,
2013-08-24 11:02:00,77.1,72.9,29.84,ESE,110,3.0,6.0,87,0.00,,,0.29,WeatherCatV1.21B27,2013-08-24 16:02:00,
2013-08-24 11:07:00,77.7,72.8,29.84,SE,145,5.0,12.0,85,0.00,,,0.29,WeatherCatV1.21B27,2013-08-24 16:07:00,
2013-08-24 11:12:00,78.1,73.2,29.84,SE,131,3.0,16.0,85,0.00,,,0.29,WeatherCatV1.21B27,2013-08-24 16:12:00,
2013-08-24 11:17:00,78.7,73.4,29.84,ESE,118,8.0,8.0,84,0.00,,,0.29,WeatherCatV1.21B27,2013-08-24 16:17:00,
2013-08-24 11:22:00,78.9,73.3,29.84,ESE,116,2.0,16.0,83,0.00,,,0.29,WeatherCatV1.21B27,2013-08-24 16:22:00,
2013-08-24 11:27:00,79.1,73.5,29.83,SSE,149,5.0,11.0,83,0.00,,,0.29,WeatherCatV1.21B27,2013-08-24 16:27:00,
2013-08-24 11:32:00,79.5,73.5,29.83,ESE,108,3.0,9.0,82,0.00,,,0.29,WeatherCatV1.21B27,2013-08-24 16:32:00,
2013-08-24 11:37:00,79.8,73.1,29.83,SE,134,3.0,14.0,80,0.00,,,0.29,WeatherCatV1.21B27,2013-08-24 16:37:00,
2013-08-24 11:42:00,80.1,73.0,29.83,SSE,147,8.0,13.0,79,0.00,,,0.29,WeatherCatV1.21B27,2013-08-24 16:42:00,
2013-08-24 11:47:00,80.4,73.3,29.83,SE,131,2.0,13.0,79,0.00,,,0.29,WeatherCatV1.21B27,2013-08-24 16:47:00,
2013-08-24 11:52:00,80.9,73.4,29.82,SE,129,8.0,12.0,78,0.00,,,0.29,WeatherCatV1.21B27,2013-08-24 16:52:00,
2013-08-24 11:57:00,81.3,73.4,29.83,East,90,3.0,12.0,77,0.00,,,0.29,WeatherCatV1.21B27,2013-08-24 16:57:00,
2013-08-24 12:02:00,81.5,73.2,29.83,ESE,118,4.0,11.0,76,0.00,,,0.29,WeatherCatV1.21B27,2013-08-24 17:02:00,
2013-08-24 12:07:00,81.6,73.7,29.83,SW,228,0.0,10.0,77,0.00,,,0.29,WeatherCatV1.21B27,2013-08-24 17:07:00,
2013-08-24 12:12:00,81.9,73.2,29.83,SE,141,4.0,13.0,75,0.00,,,0.29,WeatherCatV1.21B27,2013-08-24 17:12:00,
2013-08-24 12:17:00,82.1,73.8,29.83,East,98,5.0,7.0,76,0.00,,,0.29,WeatherCatV1.21B27,2013-08-24 17:17:00,
2013-08-24 12:22:00,82.4,74.1,29.83,SE,126,11.0,11.0,76,0.00,,,0.29,WeatherCatV1.21B27,2013-08-24 17:22:00,
2013-08-24 12:27:00,82.6,73.8,29.83,ESE,112,1.0,7.0,75,0.00,,,0.29,WeatherCatV1.21B27,2013-08-24 17:27:00,
2013-08-24 12:32:00,82.8,73.6,29.82,SE,126,2.0,5.0,74,0.00,,,0.29,WeatherCatV1.21B27,2013-08-24 17:32:00,
2013-08-24 12:37:00,83.1,73.9,29.82,SE,135,6.0,21.0,74,0.00,,,0.29,WeatherCatV1.21B27,2013-08-24 17:37:00,
2013-08-24 12:42:00,83.4,74.2,29.82,SE,125,2.0,13.0,74,0.00,,,0.29,WeatherCatV1.21B27,2013-08-24 17:42:00,
2013-08-24 12:47:00,83.5,73.9,29.81,SSE,166,8.0,14.0,73,0.00,,,0.29,WeatherCatV1.21B27,2013-08-24 17:47:00,
2013-08-24 12:52:00,83.7,74.5,29.81,ESE,113,2.0,11.0,74,0.00,,,0.29,WeatherCatV1.21B27,2013-08-24 17:52:00,
2013-08-24 12:57:00,83.9,73.9,29.80,ESE,120,8.0,14.0,72,0.00,,,0.29,WeatherCatV1.21B27,2013-08-24 17:57:00,
2013-08-24 13:02:00,83.9,73.9,29.80,ESE,115,3.0,13.0,72,0.00,,,0.29,WeatherCatV1.21B27,2013-08-24 18:02:00,
2013-08-24 13:07:00,83.9,74.7,29.80,East,84,5.0,13.0,74,0.00,,,0.29,WeatherCatV1.21B27,2013-08-24 18:07:00,
2013-08-24 13:12:00,83.9,73.9,29.80,SE,128,9.0,13.0,72,0.00,,,0.29,WeatherCatV1.21B27,2013-08-24 18:12:00,
2013-08-24 13:17:00,83.9,74.3,29.81,ESE,104,9.0,10.0,73,0.00,,,0.29,WeatherCatV1.21B27,2013-08-24 18:17:00,
2013-08-24 13:22:00,84.0,74.0,29.81,ESE,111,8.0,17.0,72,0.00,,,0.29,WeatherCatV1.21B27,2013-08-24 18:22:00,
2013-08-24 13:27:00,83.6,74.0,29.81,SE,130,3.0,11.0,73,0.00,,,0.29,WeatherCatV1.21B27,2013-08-24 18:27:00,
2013-08-24 13:32:00,83.3,74.1,29.81,SSE,158,8.0,8.0,74,0.00,,,0.29,WeatherCatV1.21B27,2013-08-24 18:32:00,
2013-08-24 13:37:00,83.8,74.6,29.81,SW,225,4.0,10.0,74,0.00,,,0.29,WeatherCatV1.21B27,2013-08-24 18:37:00,
2013-08-24 13:42:00,84.5,74.9,29.80,ESE,121,9.0,10.0,73,0.00,,,0.29,WeatherCatV1.21B27,2013-08-24 18:42:00,
2013-08-24 13:47:00,84.9,75.2,29.80,SE,135,0.0,10.0,73,0.00,,,0.29,WeatherCatV1.21B27,2013-08-24 18:47:00,
2013-08-24 13:52:00,85.2,75.5,29.80,SE,134,5.0,9.0,73,0.00,,,0.29,WeatherCatV1.21B27,2013-08-24 18:52:00,
2013-08-24 13:57:00,85.4,75.3,29.81,SSE,153,6.0,15.0,72,0.00,,,0.29,WeatherCatV1.21B27,2013-08-24 18:57:00,
2013-08-24 14:02:00,85.7,76.0,29.81,SSE,153,1.0,10.0,73,0.00,,,0.29,WeatherCatV1.21B27,2013-08-24 19:02:00,
2013-08-24 14:07:00,86.1,75.1,29.81,SE,141,10.0,12.0,70,0.00,,,0.29,WeatherCatV1.21B27,2013-08-24 19:07:00,
2013-08-24 14:12:00,86.2,76.1,29.81,ESE,113,7.0,10.0,72,0.00,,,0.29,WeatherCatV1.21B27,2013-08-24 19:12:00,
2013-08-24 14:17:00,86.2,75.2,29.81,SSE,152,6.0,13.0,70,0.00,,,0.29,WeatherCatV1.21B27,2013-08-24 19:17:00,
2013-08-24 14:22:00,86.3,75.8,29.81,SE,140,0.0,8.0,71,0.00,,,0.29,WeatherCatV1.21B27,2013-08-24 19:22:00,
2013-08-24 14:27:00,86.5,75.9,29.81,ESE,121,4.0,11.0,71,0.00,,,0.29,WeatherCatV1.21B27,2013-08-24 19:27:00,
2013-08-24 14:32:00,86.4,75.8,29.81,SSE,158,6.0,14.0,71,0.00,,,0.29,WeatherCatV1.21B27,2013-08-24 19:32:00,
2013-08-24 14:37:00,86.3,75.3,29.81,SE,125,11.0,17.0,70,0.00,,,0.29,WeatherCatV1.21B27,2013-08-24 19:37:00,
2013-08-24 14:42:00,86.5,75.9,29.81,SE,128,8.0,11.0,71,0.00,,,0.29,WeatherCatV1.21B27,2013-08-24 19:42:00,
2013-08-24 14:47:00,86.3,75.8,29.81,ESE,116,5.0,12.0,71,0.00,,,0.29,WeatherCatV1.21B27,2013-08-24 19:47:00,
2013-08-24 14:52:00,86.4,76.3,29.80,ESE,103,6.0,11.0,72,0.00,,,0.29,WeatherCatV1.21B27,2013-08-24 19:52:00,
2013-08-24 14:57:00,86.9,76.3,29.80,ESE,106,7.0,12.0,71,0.00,,,0.29,WeatherCatV1.21B27,2013-08-24 19:57:00,
2013-08-24 15:02:00,87.1,76.5,29.80,East,87,2.0,8.0,71,0.00,,,0.29,WeatherCatV1.21B27,2013-08-24 20:02:00,
2013-08-24 15:07:00,87.5,76.9,29.80,ESE,106,7.0,13.0,71,0.00,,,0.29,WeatherCatV1.21B27,2013-08-24 20:07:00,
2013-08-24 15:12:00,87.4,76.4,29.80,SW,222,12.0,14.0,70,0.00,,,0.29,WeatherCatV1.21B27,2013-08-24 20:12:00,
2013-08-24 15:17:00,87.3,76.7,29.80,SSE,158,2.0,12.0,71,0.00,,,0.29,WeatherCatV1.21B27,2013-08-24 20:17:00,
2013-08-24 15:22:00,87.7,77.1,29.80,ESE,120,3.0,8.0,71,0.00,,,0.29,WeatherCatV1.21B27,2013-08-24 20:22:00,
2013-08-24 15:27:00,88.0,77.4,29.80,SE,135,4.0,12.0,71,0.00,,,0.29,WeatherCatV1.21B27,2013-08-24 20:27:00,
2013-08-24 15:32:00,88.2,77.6,29.80,SE,133,4.0,8.0,71,0.00,,,0.29,WeatherCatV1.21B27,2013-08-24 20:32:00,
2013-08-24 15:37:00,88.4,77.3,29.80,SW,228,4.0,9.0,70,0.00,,,0.29,WeatherCatV1.21B27,2013-08-24 20:37:00,
2013-08-24 15:42:00,88.3,77.2,29.79,SE,140,6.0,10.0,70,0.00,,,0.29,WeatherCatV1.21B27,2013-08-24 20:42:00,
2013-08-24 15:47:00,88.5,77.9,29.80,SSE,158,2.0,9.0,71,0.00,,,0.29,WeatherCatV1.21B27,2013-08-24 20:47:00,
2013-08-24 15:52:00,88.7,77.6,29.80,South,172,3.0,6.0,70,0.00,,,0.29,WeatherCatV1.21B27,2013-08-24 20:52:00,
2013-08-24 15:57:00,88.9,77.4,29.79,SE,133,3.0,9.0,69,0.00,,,0.29,WeatherCatV1.21B27,2013-08-24 20:57:00,
2013-08-24 16:02:00,89.2,78.1,29.79,SE,128,4.0,13.0,70,0.00,,,0.29,WeatherCatV1.21B27,2013-08-24 21:02:00,
2013-08-24 16:07:00,89.3,77.8,29.80,SE,132,7.0,10.0,69,0.00,,,0.29,WeatherCatV1.21B27,2013-08-24 21:07:00,
2013-08-24 16:12:00,89.3,77.8,29.79,South,174,2.0,7.0,69,0.00,,,0.29,WeatherCatV1.21B27,2013-08-24 21:12:00,
2013-08-24 16:17:00,89.4,77.4,29.79,SE,143,2.0,11.0,68,0.00,,,0.29,WeatherCatV1.21B27,2013-08-24 21:17:00,
2013-08-24 16:22:00,89.2,77.2,29.80,South,191,3.0,11.0,68,0.00,,,0.29,WeatherCatV1.21B27,2013-08-24 21:22:00,
2013-08-24 16:27:00,89.3,77.8,29.79,SE,126,2.0,7.0,69,0.00,,,0.29,WeatherCatV1.21B27,2013-08-24 21:27:00,
2013-08-24 16:32:00,89.5,77.5,29.80,ESE,117,4.0,11.0,68,0.00,,,0.29,WeatherCatV1.21B27,2013-08-24 21:32:00,
2013-08-24 16:37:00,89.1,76.7,29.80,SSE,159,4.0,13.0,67,0.00,,,0.29,WeatherCatV1.21B27,2013-08-24 21:37:00,
2013-08-24 16:42:00,89.1,77.6,29.80,ESE,106,5.0,15.0,69,0.00,,,0.29,WeatherCatV1.21B27,2013-08-24 21:42:00,
2013-08-24 16:47:00,89.0,77.5,29.80,SSE,159,3.0,12.0,69,0.00,,,0.29,WeatherCatV1.21B27,2013-08-24 21:47:00,
2013-08-24 16:52:00,88.9,77.8,29.80,SE,135,14.0,14.0,70,0.00,,,0.29,WeatherCatV1.21B27,2013-08-24 21:52:00,
2013-08-24 16:57:00,88.8,77.7,29.80,SE,128,4.0,6.0,70,0.00,,,0.29,WeatherCatV1.21B27,2013-08-24 21:57:00,
2013-08-24 17:02:00,88.9,77.8,29.79,ESE,115,4.0,10.0,70,0.00,,,0.29,WeatherCatV1.21B27,2013-08-24 22:02:00,
2013-08-24 17:07:00,89.1,78.0,29.79,ESE,116,7.0,7.0,70,0.00,,,0.29,WeatherCatV1.21B27,2013-08-24 22:07:00,
2013-08-24 17:12:00,89.0,77.5,29.80,ESE,115,8.0,10.0,69,0.00,,,0.29,WeatherCatV1.21B27,2013-08-24 22:12:00,
2013-08-24 17:17:00,89.0,77.9,29.80,SE,143,3.0,9.0,70,0.00,,,0.29,WeatherCatV1.21B27,2013-08-24 22:17:00,
2013-08-24 17:22:00,89.1,78.0,29.80,ENE,59,5.0,11.0,70,0.00,,,0.29,WeatherCatV1.21B27,2013-08-24 22:22:00,
2013-08-24 17:27:00,88.8,77.3,29.80,SE,128,3.0,6.0,69,0.00,,,0.29,WeatherCatV1.21B27,2013-08-24 22:27:00,
2013-08-24 17:32:00,88.6,77.1,29.80,SE,134,2.0,7.0,69,0.00,,,0.29,WeatherCatV1.21B27,2013-08-24 22:32:00,
2013-08-24 17:37:00,88.6,77.5,29.80,ESE,120,2.0,12.0,70,0.00,,,0.29,WeatherCatV1.21B27,2013-08-24 22:37:00,
2013-08-24 17:42:00,88.5,77.4,29.80,SE,132,0.0,2.0,70,0.00,,,0.29,WeatherCatV1.21B27,2013-08-24 22:42:00,
2013-08-24 17:47:00,88.2,77.2,29.80,ESE,122,5.0,8.0,70,0.00,,,0.29,WeatherCatV1.21B27,2013-08-24 22:47:00,
2013-08-24 17:52:00,88.1,77.9,29.80,SE,125,4.0,8.0,72,0.00,,,0.29,WeatherCatV1.21B27,2013-08-24 22:52:00,
2013-08-24 17:57:00,88.0,77.4,29.80,SE,125,5.0,5.0,71,0.00,,,0.29,WeatherCatV1.21B27,2013-08-24 22:57:00,
2013-08-24 18:02:00,87.8,77.6,29.80,SE,125,4.0,10.0,72,0.00,,,0.29,WeatherCatV1.21B27,2013-08-24 23:02:00,
2013-08-24 18:07:00,87.7,77.5,29.80,SSE,159,8.0,8.0,72,0.00,,,0.29,WeatherCatV1.21B27,2013-08-24 23:07:00,
2013-08-24 18:12:00,87.5,77.8,29.80,ESE,114,2.0,9.0,73,0.00,,,0.29,WeatherCatV1.21B27,2013-08-24 23:12:00,
2013-08-24 18:17:00,87.4,77.7,29.80,ESE,120,1.0,5.0,73,0.00,,,0.29,WeatherCatV1.21B27,2013-08-24 23:17:00,
2013-08-24 18:22:00,87.3,77.6,29.80,ESE,115,5.0,6.0,73,0.00,,,0.29,WeatherCatV1.21B27,2013-08-24 23:22:00,
2013-08-24 18:27:00,87.2,77.5,29.80,ESE,114,4.0,9.0,73,0.00,,,0.29,WeatherCatV1.21B27,2013-08-24 23:27:00,
2013-08-24 18:32:00,87.0,77.7,29.79,ESE,121,5.0,7.0,74,0.00,,,0.29,WeatherCatV1.21B27,2013-08-24 23:32:00,
2013-08-24 18:37:00,86.8,77.5,29.79,SSE,149,2.0,6.0,74,0.00,,,0.29,WeatherCatV1.21B27,2013-08-24 23:37:00,
2013-08-24 18:42:00,86.6,77.3,29.79,SSE,168,3.0,8.0,74,0.00,,,0.29,WeatherCatV1.21B27,2013-08-24 23:42:00,
2013-08-24 18:47:00,86.4,77.1,29.79,ESE,107,2.0,14.0,74,0.00,,,0.29,WeatherCatV1.21B27,2013-08-24 23:47:00,
2013-08-24 18:52:00,86.3,77.0,29.79,SSE,158,4.0,8.0,74,0.00,,,0.29,WeatherCatV1.21B27,2013-08-24 23:52:00,
2013-08-24 18:57:00,86.1,77.2,29.79,SE,130,7.0,7.0,75,0.00,,,0.29,WeatherCatV1.21B27,2013-08-24 23:57:00,
2013-08-24 19:02:00,86.0,77.1,29.79,SE,125,2.0,8.0,75,0.00,,,0.29,WeatherCatV1.21B27,2013-08-25 00:02:00,
2013-08-24 19:07:00,85.9,77.0,29.79,SSE,164,1.0,5.0,75,0.00,,,0.29,WeatherCatV1.21B27,2013-08-25 00:07:00,
2013-08-24 19:12:00,85.7,76.8,29.79,ESE,109,2.0,15.0,75,0.00,,,0.29,WeatherCatV1.21B27,2013-08-25 00:12:00,
2013-08-24 19:17:00,85.5,77.0,29.79,South,184,0.0,6.0,76,0.00,,,0.29,WeatherCatV1.21B27,2013-08-25 00:17:00,
2013-08-24 19:22:00,85.3,76.8,29.79,ESE,121,1.0,7.0,76,0.00,,,0.29,WeatherCatV1.21B27,2013-08-25 00:22:00,
2013-08-24 19:27:00,85.0,77.0,29.79,ESE,117,1.0,8.0,77,0.00,,,0.29,WeatherCatV1.21B27,2013-08-25 00:27:00,
2013-08-24 19:32:00,84.8,76.8,29.79,SE,127,3.0,8.0,77,0.00,,,0.29,WeatherCatV1.21B27,2013-08-25 00:32:00,
2013-08-24 19:37:00,84.6,76.6,29.79,ESE,118,3.0,5.0,77,0.00,,,0.29,WeatherCatV1.21B27,2013-08-25 00:37:00,
2013-08-24 19:42:00,84.4,76.4,29.79,ESE,120,2.0,4.0,77,0.00,,,0.29,WeatherCatV1.21B27,2013-08-25 00:42:00,
2013-08-24 19:47:00,84.3,76.3,29.79,SE,132,0.0,3.0,77,0.00,,,0.29,WeatherCatV1.21B27,2013-08-25 00:47:00,
2013-08-24 19:52:00,84.1,76.5,29.79,SE,145,0.0,2.0,78,0.00,,,0.29,WeatherCatV1.21B27,2013-08-25 00:52:00,
2013-08-24 19:57:00,83.9,76.3,29.79,ESE,122,1.0,8.0,78,0.00,,,0.29,WeatherCatV1.21B27,2013-08-25 00:57:00,
2013-08-24 20:02:00,83.7,76.1,29.79,SSE,151,0.0,5.0,78,0.00,,,0.29,WeatherCatV1.21B27,2013-08-25 01:02:00,
2013-08-24 20:07:00,83.5,75.9,29.79,ESE,106,0.0,9.0,78,0.00,,,0.29,WeatherCatV1.21B27,2013-08-25 01:07:00,
2013-08-24 20:12:00,83.3,75.7,29.79,South,190,5.0,7.0,78,0.00,,,0.29,WeatherCatV1.21B27,2013-08-25 01:12:00,
2013-08-24 20:17:00,83.2,75.6,29.80,East,97,1.0,8.0,78,0.00,,,0.29,WeatherCatV1.21B27,2013-08-25 01:17:00,
2013-08-24 20:22:00,83.1,75.5,29.80,ESE,114,4.0,8.0,78,0.00,,,0.29,WeatherCatV1.21B27,2013-08-25 01:22:00,
2013-08-24 20:27:00,83.0,75.4,29.80,SE,126,3.0,4.0,78,0.00,,,0.29,WeatherCatV1.21B27,2013-08-25 01:27:00,
2013-08-24 20:32:00,82.8,75.2,29.80,SE,129,7.0,8.0,78,0.00,,,0.29,WeatherCatV1.21B27,2013-08-25 01:32:00,
2013-08-24 20:37:00,82.6,75.4,29.80,SE,129,0.0,3.0,79,0.00,,,0.29,WeatherCatV1.21B27,2013-08-25 01:37:00,
2013-08-24 20:42:00,82.5,75.3,29.81,ESE,118,4.0,8.0,79,0.00,,,0.29,WeatherCatV1.21B27,2013-08-25 01:42:00,
2013-08-24 20:47:00,82.3,75.1,29.81,SE,125,5.0,7.0,79,0.00,,,0.29,WeatherCatV1.21B27,2013-08-25 01:47:00,
2013-08-24 20:52:00,82.2,75.4,29.81,ESE,121,0.0,7.0,80,0.00,,,0.29,WeatherCatV1.21B27,2013-08-25 01:52:00,
2013-08-24 20:57:00,82.0,75.2,29.81,ESE,110,1.0,5.0,80,0.00,,,0.29,WeatherCatV1.21B27,2013-08-25 01:57:00,
2013-08-24 21:02:00,81.9,75.1,29.81,SSE,160,3.0,5.0,80,0.00,,,0.29,WeatherCatV1.21B27,2013-08-25 02:02:00,
2013-08-24 21:07:00,81.8,75.4,29.81,SE,146,1.0,3.0,81,0.00,,,0.29,WeatherCatV1.21B27,2013-08-25 02:07:00,
2013-08-24 21:12:00,81.6,75.2,29.81,SE,134,2.0,6.0,81,0.00,,,0.29,WeatherCatV1.21B27,2013-08-25 02:12:00,
2013-08-24 21:17:00,81.5,75.1,29.81,SE,137,1.0,10.0,81,0.00,,,0.29,WeatherCatV1.21B27,2013-08-25 02:17:00,
2013-08-24 21:22:00,81.4,75.4,29.81,ESE,119,3.0,7.0,82,0.00,,,0.29,WeatherCatV1.21B27,2013-08-25 02:22:00,
2013-08-24 21:27:00,81.4,75.4,29.82,SSE,166,1.0,4.0,82,0.00,,,0.29,WeatherCatV1.21B27,2013-08-25 02:27:00,
2013-08-24 21:32:00,81.3,75.3,29.82,ESE,114,0.0,7.0,82,0.00,,,0.29,WeatherCatV1.21B27,2013-08-25 02:32:00,
2013-08-24 21:37:00,81.2,75.2,29.82,ESE,113,3.0,4.0,82,0.00,,,0.29,WeatherCatV1.21B27,2013-08-25 02:37:00,
2013-08-24 21:42:00,81.0,75.0,29.82,SE,127,0.0,7.0,82,0.00,,,0.29,WeatherCatV1.21B27,2013-08-25 02:42:00,
2013-08-24 21:47:00,80.9,74.9,29.82,East,99,1.0,6.0,82,0.00,,,0.29,WeatherCatV1.21B27,2013-08-25 02:47:00,
2013-08-24 21:52:00,80.8,74.8,29.82,SSE,160,3.0,8.0,82,0.00,,,0.29,WeatherCatV1.21B27,2013-08-25 02:52:00,
2013-08-24 21:57:00,80.7,74.7,29.82,ESE,110,1.0,6.0,82,0.00,,,0.29,WeatherCatV1.21B27,2013-08-25 02:57:00,
2013-08-24 22:02:00,80.7,74.7,29.83,ESE,115,1.0,7.0,82,0.00,,,0.29,WeatherCatV1.21B27,2013-08-25 03:02:00,
2013-08-24 22:07:00,80.7,74.7,29.83,ESE,122,0.0,4.0,82,0.00,,,0.29,WeatherCatV1.21B27,2013-08-25 03:07:00,
2013-08-24 22:12:00,80.6,74.6,29.83,SSE,149,1.0,7.0,82,0.00,,,0.29,WeatherCatV1.21B27,2013-08-25 03:12:00,
2013-08-24 22:17:00,80.6,74.6,29.83,SE,143,0.0,5.0,82,0.00,,,0.29,WeatherCatV1.21B27,2013-08-25 03:17:00,
2013-08-24 22:22:00,80.6,74.6,29.83,ESE,110,2.0,9.0,82,0.00,,,0.29,WeatherCatV1.21B27,2013-08-25 03:22:00,
2013-08-24 22:27:00,80.6,74.2,29.83,ESE,120,5.0,5.0,81,0.00,,,0.29,WeatherCatV1.21B27,2013-08-25 03:27:00,
2013-08-24 22:32:00,80.6,74.2,29.83,SE,138,2.0,8.0,81,0.00,,,0.29,WeatherCatV1.21B27,2013-08-25 03:32:00,
2013-08-24 22:37:00,80.7,74.3,29.83,SSW,201,7.0,9.0,81,0.00,,,0.29,WeatherCatV1.21B27,2013-08-25 03:37:00,
2013-08-24 22:42:00,80.7,73.9,29.83,ESE,116,3.0,4.0,80,0.00,,,0.29,WeatherCatV1.21B27,2013-08-25 03:42:00,
2013-08-24 22:47:00,80.7,73.9,29.83,ESE,114,1.0,6.0,80,0.00,,,0.29,WeatherCatV1.21B27,2013-08-25 03:47:00,
2013-08-24 22:52:00,80.7,73.9,29.83,ESE,122,9.0,9.0,80,0.00,,,0.29,WeatherCatV1.21B27,2013-08-25 03:52:00,
2013-08-24 22:57:00,80.7,73.9,29.83,ESE,118,3.0,8.0,80,0.00,,,0.29,WeatherCatV1.21B27,2013-08-25 03:57:00,
2013-08-24 23:01:00,80.7,73.9,29.83,ESE,116,0.0,10.0,80,0.00,,,0.29,WeatherCatV1.21B27,2013-08-25 04:01:00,
2013-08-24 23:03:00,80.6,73.8,29.83,SSE,149,3.0,7.0,80,0.00,,,0.29,WeatherCatV1.21B27,2013-08-25 04:03:00,
2013-08-24 23:08:00,80.5,73.7,29.83,SE,132,0.0,9.0,80,0.00,,,0.29,WeatherCatV1.21B27,2013-08-25 04:08:00,
2013-08-24 23:13:00,80.4,73.7,29.83,NNW,336,4.0,6.0,80,0.00,,,0.29,WeatherCatV1.21B27,2013-08-25 04:13:00,
2013-08-24 23:18:00,80.3,73.6,29.84,SE,144,2.0,4.0,80,0.00,,,0.29,WeatherCatV1.21B27,2013-08-25 04:18:00,
2013-08-24 23:23:00,80.2,73.4,29.84,SE,125,2.0,3.0,80,0.00,,,0.29,WeatherCatV1.21B27,2013-08-25 04:23:00,
2013-08-24 23:28:00,80.2,73.4,29.83,SE,131,1.0,5.0,80,0.00,,,0.29,WeatherCatV1.21B27,2013-08-25 04:28:00,
2013-08-24 23:33:00,80.2,73.4,29.84,SE,126,0.0,9.0,80,0.00,,,0.29,WeatherCatV1.21B27,2013-08-25 04:33:00,
2013-08-24 23:38:00,80.2,73.4,29.83,SE,135,2.0,9.0,80,0.00,,,0.29,WeatherCatV1.21B27,2013-08-25 04:38:00,
2013-08-24 23:43:00,80.1,73.3,29.84,SE,131,3.0,6.0,80,0.00,,,0.29,WeatherCatV1.21B27,2013-08-25 04:43:00,
2013-08-24 23:48:00,80.0,73.3,29.84,ESE,114,0.0,7.0,80,0.00,,,0.29,WeatherCatV1.21B27,2013-08-25 04:48:00,
2013-08-24 23:53:00,80.0,73.3,29.84,ESE,110,5.0,7.0,80,0.00,,,0.29,WeatherCatV1.21B27,2013-08-25 04:53:00,
2013-08-24 23:58:00,79.9,73.2,29.84,South,175,7.0,8.0,80,0.00,,,0.29,WeatherCatV1.21B27,2013-08-25 04:58:00,